Regional Weather Roundup
Issued by NWS State College, PA

Home | Current Version | Previous Version | Text Only | Print | Product List | Glossary On
Versions: 1 2 3 4 5 6 7 8 9 10 11 12 13 14 15 16 17 18 19 20 21 22 23 24 25 26 27 28 29 30 31 32 33 34 35 36 37 38 39 40 41 42 43 44 45 46 47 48 49 50
000
ASUS41 KCTP 242210
RWRCTP

REGIONAL WEATHER ROUNDUP
NATIONAL WEATHER SERVICE STATE COLLEGE PA
600 PM EDT MON APR 24 2017

Note: "fair" indicates few or no clouds below 12,000 feet with no
significant weather and/or obstructions to visibility.

* = STATION THAT DOES NOT REPORT PRECIPITATION /E.G. RAIN...SNOW...ETC/
    THUNDER OR FOG.

PAZ002>004-007>009-013>016-020>023-029>032-242300-
WESTERN PENNSYLVANIA

CITY           SKY/WX    TMP DP  RH WIND       PRES   REMARKS
ERIE           SUNNY     56  44  64 NE17      29.99S
MEADVILLE      SUNNY     69  32  25 S8        29.97R
FRANKLIN*      PTSUNNY   66  36  32 SE12      30.01R
NEW CASTLE     CLOUDY    62  43  49 E13       30.00S
BEAVER COUNTY  DRIZZLE   57  41  54 MISG      29.99S
BUTLER*        CLOUDY    57  43  58 SE9       30.01S
PITTSBURGH INT LGT RAIN  56  45  66 E8        29.99F
PITTSBURGH     LGT RAIN  55  42  61 SE10      30.00S
INDIANA*       PTSUNNY   57  39  51 SE12      30.05S
LATROBE        CLOUDY    52  46  82 E9G18     30.02S
WASHINGTON CO* CLOUDY    52  46  82 NE8       30.01S
$$

PAZ004>006-010>012-017>019-024>028-033>037-041-042-045-046-049>053-242300-
CENTRAL PENNSYLVANIA

CITY           SKY/WX    TMP DP  RH WIND       PRES   REMARKS
BRADFORD       SUNNY     67  20  16 S13G24    30.02R
DUBOIS         CLOUDY    60  33  36 E12       30.02S
CLEARFIELD     CLOUDY    61  35  37 E9        30.05S
JOHNSTOWN      LGT RAIN  51  41  68 E9        30.02S
ALTOONA        CLOUDY    57  40  52 E15       30.05S
STATE COLLEGE  CLOUDY    59  39  47 E7        30.07S
WILLIAMSPORT   CLOUDY    64  35  34 S6        30.06R
SELINSGROVE    CLOUDY    62  38  40 SE8       30.07S
FT INDIANTOWN  CLOUDY    55  47  74 E7        30.09R
CAPITAL CITY   CLOUDY    59  43  55 NE9       30.07S
HARRISBURG     CLOUDY    59  43  55 E6        30.07R
YORK           RAIN      55  43  63 E9        30.07R
$$

PAZ038>040-043-044-047-048-054-055-060>062-067>071-242300-
EASTERN PENNSYLVANIA

CITY           SKY/WX    TMP DP  RH WIND       PRES   REMARKS
SCRANTON       CLOUDY    65  40  39 SE8       30.08F
MOUNT POCONO   CLOUDY    57  30  35 SE10      30.10F
ALLENTOWN      CLOUDY    59  40  49 E13       30.10F
QUAKERTOWN*    CLOUDY    55  41  58 E7        30.11F
READING        LGT RAIN  55  46  71 E8        30.08F
LANCASTER      CLOUDY    56  46  69 E10       30.07R
COATESVILLE    CLOUDY    55  41  58 NE8G16    30.08S
POTTSTOWN      CLOUDY    56  35  45 E8        30.11S
BLUE BELL      CLOUDY    54  41  62 NE7       30.11S
DOYLESTOWN     CLOUDY    55  37  50 E3        30.10F
WILLOW GROVE   NOT AVBL
NORTH PHILA    CLOUDY    58  43  57 E16       30.11F
PHILADELPHIA   CLOUDY    57  41  55 E15       30.09S
$$




USA.gov is the U.S. government's official web portal to all federal, state and local government web resources and services.